Regional Weather Roundup
Issued by NWS

Home | Current Version | Previous Version | Text Only | Print | Product List | Glossary Off
Versions: 1 2 3 4 5 6 7 8 9 10 11 12 13 14 15 16 17 18 19 20 21 22 23 24 25 26 27 28 29 30 31 32 33 34 35 36 37 38 39 40 41 42 43 44 45 46 47 48 49

000
ASUS45 KBOU 220407
RWRCO

WEATHER ROUNDUP FOR COLORADO
NATIONAL WEATHER SERVICE DENVER/BOULDER CO
1000 PM MDT SUN SEP 21 2014

NOTE: "FAIR" INDICATES FEW OR NO CLOUDS BELOW 12000 FEET WITH NO
SIGNIFICANT WEATHER AND/OR OBSTRUCTIONS TO VISIBILITY.

COZ001>005-013-030-031-220500-
...NORTHWEST COLORADO...

CITY           SKY/WX    TMP DP  RH WIND       PRES   REMARKS
CRAIG          HVY RAIN  56  52  86 E7        30.31F FOG
HAYDEN         CLOUDY    52  48  87 SW6       30.35R
MEEKER         CLOUDY    56  52  86 E7        30.32
MOUNT WERNER   NOT AVBL
STEAMBOAT SPGS MOCLDY    53  50  89 SE5       30.33F
WALDEN         CLOUDY    46  41  81 CALM      30.40F
$$

COZ006>008-011-220500-
...WEST CENTRAL VALLEYS...

CITY           SKY/WX    TMP DP  RH WIND       PRES   REMARKS
GRAND JUNCTION PTCLDY    58  56  93 N6        30.19F
MONTROSE       MOCLDY    62  55  77 CALM      30.28S
EAGLE          MOCLDY    57  54  88 SW7       30.37R
RIFLE          RAIN      61  58  90 NE7       30.28R
DELTA          RAIN      64  58  83 CALM      30.23R
NUCLA          CLOUDY    61  54  77 W6        30.33R
$$

COZ017>023-064>068-220500-
...SOUTHWEST COLORADO...

CITY           SKY/WX    TMP DP  RH WIND       PRES   REMARKS
DURANGO        CLOUDY    66  51  58 CALM      30.32R
CORTEZ         LGT RAIN  61  59  93 N5        30.30R
PAGOSA SPRINGS MOCLDY    60  46  58 NE3       30.40S
TELLURIDE      NOT AVBL
WOLF CREEK PAS MOCLDY    41  41 100 SW15G24   30.66S
$$

COZ009-010-012-014-032>034-037-058>063-220500-
...CENTRAL COLORADO...

CITY           SKY/WX    TMP DP  RH WIND       PRES   REMARKS
ASPEN          MOCLDY    55  50  83 N5        30.39R
BUENA VISTA    CLOUDY    54  52  94 SE5       30.46S
COPPER MTN     MOCLDY    46  37  71 SE14      30.64F
BERTHOUD PASS  FAIR      36  34  93 SE22      30.71S FOG
COTTONWOOD PAS RAIN      52  48  87 SE14      30.56S
GUNNISON       MOCLDY    63  45  51 E6        30.39S
KREMMLING      MOCLDY    48  45  87 CALM      30.41R
LEADVILLE      LGT RAIN  49  46  90 S9        30.53S
MONARCH PASS   SNOW      43  41  93 E9        30.78S VSB<1/4
SALIDA         CLOUDY    58  54  86 E7        30.50S
SUNLIGHT       TSTM      48  46  93 CALM      30.60R
WILKERSON PASS NOT AVBL
$$

COZ069>075-220500-
...SAN LUIS VALLEY/SANGRE DE CRISTO MOUNTAINS...

CITY           SKY/WX    TMP DP  RH WIND       PRES   REMARKS
ALAMOSA        MOCLDY    57  48  72 SE7       30.39R
LA VETA PASS   FOG       46  45  93 NE7       30.58F VSB 1
SAGUACHE       NOT AVBL
$$

COZ035-036-038>040-220500-
...NORTHERN COLORADO FRONT RANGE...

CITY           SKY/WX    TMP DP  RH WIND       PRES   REMARKS
DENVER INTL AP LGT RAIN  64  54  69 SW16      30.32S
DMNS CITY PARK   N/A     58  57  94 S7G13     30.32F
AURORA         LGT RAIN  59  58  99 SW8       30.35F
FRONT RANGE AP NOT AVBL
ERIE MUNI ARPT NOT AVBL
BOULDER MUN AP CLOUDY    63  54  72 S5        30.30F
CENTENNIAL     LGT RAIN  57  56  96 W8        30.36F FOG
BROOMFIELD     LGT RAIN  63  57  82 S6        30.33F
FORT COLLINS   CLOUDY    63  43  48 MISG      30.29F
LONGMONT       CLOUDY    64  55  73 SW5       30.31S
$$

COZ041-046-047-076>085-087-088-220500-
...PIKES PEAK/PALMER DIVIDE AND SOUTHERN FOOTHILLS...

CITY           SKY/WX    TMP DP  RH WIND       PRES   REMARKS
COLO. SPRINGS  CLOUDY    64  41  42 SE8       30.41R
A. F. ACADEMY  CLOUDY    62  42  47 S14       30.41S
ELLICOTT       NOT AVBL
FALCON         CLOUDY    59  40  48 SE13      30.44S
FORT CARSON    CLOUDY    64  43  46 SE5       30.38S
LIMON          PTCLDY    57  39  51 SE9       30.37R
MONUMENT HILL  CLOUDY    57  39  51 S16       30.42R
TRINIDAD       LGT RAIN  61  57  87 S3        30.37F
$$

COZ042>045-048>051-090-091-220500-
...NORTHEAST COLORADO...

CITY           SKY/WX    TMP DP  RH WIND       PRES   REMARKS
GREELEY ARPT   CLOUDY    63  43  48 SE12      30.27F
AKRON          PTCLDY    57  42  57 SE13      30.32F
BURLINGTON     PTCLDY    60  38  43 SE12      30.34F
WRAY           CLOUDY    67  40  37 SE8       30.32S
STERLING       PTCLDY    66  45  45 SE12      30.29S
HOLYOKE        MOCLDY    63  45  51 SE7       30.32S
FORT MORGAN    PTCLDY    62  39  42 SE13G21   30.31S
$$

COZ086-089-092>099-220500-
...SOUTHEAST COLORADO...

CITY           SKY/WX    TMP DP  RH WIND       PRES   REMARKS
PUEBLO         CLOUDY    68  46  45 E13       30.30S
LA JUNTA       PTCLDY    63  42  46 SE12      30.31R
LAMAR          CLEAR     62  42  47 SE9       30.30S
SPRINGFIELD      N/A     55  44  66 SE8       30.35R
$$



USA.gov is the U.S. government's official web portal to all federal, state and local government web resources and services.